Погода в Кличено-Заречье

Россия / Липецкая область     52°57′11″N   38°01′48″E
темп.,
°C
ветер,
м/с
пор.,
м/с
влажн.,
%
обл.,
%
осадки,
мм/ч
давл.,
гПа
погр.,
м
15 апреля, чт
чт1500:00+13вюв3755100 0.0 1015153
03:00+11вюв3667100 0.0 1014105
06:00+11юв3668100 0.0 1014113
09:00+15вюв345591 0.0 1014239
12:00+16юв4649100 0.0 1013942
15:00+16ююв5751100 0.4 10131380
18:00+13юв3870100 1.5 1014736
21:00+12юв3575100 1.6 1014101
16 апреля, пт
пт1600:00+10вюв358680 1.2 1014106
03:00+9вюв378489 1.2 1015130
06:00+9юв248677 0.0 101693
09:00+12юв3570100 0.0 1017466
12:00+15юв575778 0.1 10171389
15:00+16юв574890 1.3 10161825
18:00+15ююв584230 0.1 1016465
21:00+11юз23595 0.1 101831
17 апреля, сб
сб1700:00+9ссв1172100 0.0 101917
03:00+9ююв2273100 0.0 101922
06:00+8сз3581100 0.0 1018136
09:00+9св4796100 2.1 1017367
12:00+10вюв51186100 9.5 10181074
15:00+9юв51091100 15.5 1018541
18:00+9юв1293100 3.3 1017231
21:00+8с3596100 6.4 1017211
18 апреля, вс
вс1800:00+8всв1296100 0.1 101686
03:00+7вюв5795100 0.6 1016463
06:00+6всв61093100 0.1 1017608
09:00+8в71180100 0.5 10181016
12:00+7в458071 0.1 1020663
15:00+11всв5662100 0.3 10201363
18:00+9св797794 0.2 1021822
21:00+7св6108569 0.2 1022494
19 апреля, пн
пн1900:00+6всв61083100 0.0 1022750
03:00+5ссв5128889 0.0 1023642
06:00+5св51188100 0.0 1023565
09:00+7св7107794 0.0 1023714
12:00+9всв8106999 0.0 10241235
15:00+8всв61072100 0.0 10241330
18:00+8всв61069100 0.0 1025927
21:00+8всв61165100 0.0 1025639